COSMOS 2251 DEB, 34389

Orbit data source: Space-Track

COSMOS 2251 DEB, 34389 is space debris in LEO originally from a launch on Wed, 16 Jun 1993 UTC launched from the Plesetsk Missile And Space Complex (PKMTR). The debris from Iridium 33, an American commercial communications satellite, has been tracked extensively since its accidental collision with the defunct Russian satellite Cosmos 2251 in 2009. This event, occurring at high speed in low Earth orbit (LEO), generated thousands of pieces of space debris, significantly increasing the risk of further collisions. The Iridium 33 debris cloud has impacted space traffic management and orbital debris mitigation strategies, making it a subject of ongoing study in space situational awareness.

Loading next visibility...
Identifier
34389, 1993-036QE
Orbit
LEO
Country
Flag of CISCIS
Related business
Manufacturer
Unknown
Mission
Spacecraft
Bus & Motor
Unknown
Mass
Unknown
Launch date (UTC)
1993-06-16 (33 years ago)
Launch vehicle
Unknown
Launch site
Plesetsk Missile And Space Complex (PKMTR)
Object type
Payload
Rocket body
Debris
Shape & HBR
Unknown shape, 0.1 m
Radar Cross Section
Small (<0.1 m²)

Expand to show TLE details & history
Last TLE update: 11 hours ago

TLE from 11 hours ago
0 COSMOS 2251 DEB
1 34389U 93036QE  26131.96038352  .00000616  00000-0  19509-3 0  9997
2 34389  74.0185 331.1652 0028932  50.0888  68.1697 14.41927988901772
Epoch: 2026-05-11T23:02Z
TLE epoch observation values (Epoch: 2026-05-11T23:02:57.136Z)
Latitude
57.70663°
Longitude
-91.10495°
Altitude
753.871 km
Speed
7.487 km/s
True Right ascension
08h 17m 29s
True Declination
57° 33' 04"
Sunlit
Object was in daylight at epoch
Visualization orbit readout
Latitude
Unknown
Longitude
Unknown
Altitude
Unknown
Speed
Unknown
Apparent Right ascension
Unknown
Apparent Declination
Unknown
Sunlit
N/A
Visualization observer readout
Local Sidereal Time
18:11:24
Azimuth
Unknown
Elevation
Unknown
Doppler factor
Unknown
Orbital elements
Apogee altitude
770.377 km
Perigee altitude
729.132 km
Semi-major axis
7,127.891 km
Eccentricity
0.00289
Inclination
74.0185°
RAAN
331.1652°
Arg. of periapsis
50.0888°
True anomaly
68.47787°
Mean anomaly
68.1697°
Eccentric anomaly
68.32375°
Mean motion
3.60663 °/min
Orbital period
99.82 mins
BSTAR
0.00019509
Loading maneuver chart data...
Computing Atmospheric mass density...
Loading historical data...
Loading historical data...
Loading historical data...
Loading historical data...
Loading historical data...
Loading historical data...
Loading historical data...

Documentation

Showing up to 5 results
|